Weather History for Lafayette, LA

Change the Weather History Date:

Tuesday, August 19, 2014

  Actual Average Record
Temperature  
Mean Temperature 84 °F 84 °F  
Max Temperature 93 °F 93 °F 100 °F (1999)
Min Temperature 74 °F 75 °F 65 °F (1943)
Cooling Degree Days 19 19  
Month to date cooling degree days 336 361  
Year to date cooling degree days 1838 2045  
Since 1 June cooling degree days 1369 1431  
Growing Degree Days 33 (Base 50)    
Moisture  
Dew Point 74 °F    
Average Humidity 76    
Maximum Humidity 100    
Minimum Humidity 52    
Precipitation  
Precipitation 1.22 in 0.16 in 3.80 in (1897)
Month to date precipitation 6.21 2.83  
Year to date precipitation 43.82 38.83  
Sea Level Pressure  
Sea Level Pressure 29.98 in    
Wind  
Wind Speed 5 mph (SW)    
Max Wind Speed 24 mph    
Max Gust Speed 33 mph    
Visibility 9 miles    
Events Rain , Thunderstorm    
T = Trace of Precipitation, MM = Missing Value Source: NWS Daily Summary

Daily Weather History Graph

Daily Weather History Graph

Search for Another Location

Airport:

Trip Planner

Search our weather history database for the weather conditions in past years. The results will help you decide how hot, cold, wet, or windy it might be!

Date:

Astronomy

Aug. 19, 2014 Rise Set
Actual Time 6:37 AM CDT 7:45 PM CDT
Civil Twilight 6:12 AM CDT 8:10 PM CDT
Nautical Twilight 5:42 AM CDT 8:39 PM CDT
Astronomical Twilight 5:12 AM CDT 9:10 PM CDT
Moon 1:36 AM CDT (8/19) 3:34 PM CDT (8/19)
Length of Visible Light 13h 57m
Length of Day
13h 07m
Waning Crescent, 29% of the Moon is Illuminated
Aug 19
Waning Crescent
Aug 25
New
Sep 2
First Quarter
Sep 8
Full
Sep 15
Last Quarter

Hourly Weather History & Observations

Time (CDT) Temp. Heat Index Dew Point Humidity Pressure Visibility Wind Dir Wind Speed Gust Speed Precip Events Conditions
12:53 AM 80.1 °F 85.4 °F 75.9 °F 87% 29.95 in 10.0 mi SSW 5.8 mph - N/A   Clear
1:53 AM 78.1 °F - 75.9 °F 93% 29.95 in 10.0 mi SSW 4.6 mph - N/A   Clear
2:53 AM 79.0 °F - 75.9 °F 90% 29.94 in 10.0 mi SSW 4.6 mph - N/A   Clear
3:53 AM 79.0 °F - 75.9 °F 90% 29.93 in 10.0 mi SSW 5.8 mph - N/A   Clear
4:53 AM 79.0 °F - 75.9 °F 90% 29.93 in 10.0 mi SSW 5.8 mph - N/A   Clear
5:53 AM 78.1 °F - 75.0 °F 90% 29.94 in 10.0 mi SSW 4.6 mph - N/A   Clear
6:53 AM 78.1 °F - 75.0 °F 90% 29.96 in 10.0 mi SSW 3.5 mph - N/A   Clear
7:53 AM 82.0 °F 89.4 °F 75.9 °F 82% 29.99 in 10.0 mi Calm Calm - N/A   Clear
8:53 AM 84.9 °F 94.1 °F 75.9 °F 74% 30.00 in 10.0 mi SW 6.9 mph - N/A   Clear
9:53 AM 87.1 °F 96.3 °F 75.0 °F 67% 30.01 in 10.0 mi SW 8.1 mph - N/A   Partly Cloudy
10:53 AM 89.1 °F 99.1 °F 75.0 °F 63% 30.01 in 10.0 mi South 5.8 mph - N/A   Mostly Cloudy
11:53 AM 89.1 °F 97.0 °F 73.0 °F 59% 30.00 in 10.0 mi WNW 3.5 mph - N/A   Mostly Cloudy
12:53 PM 91.9 °F 101.3 °F 73.9 °F 55% 29.98 in 10.0 mi Calm Calm - N/A   Mostly Cloudy
1:53 PM 91.0 °F 98.2 °F 72.0 °F 53% 29.96 in 10.0 mi SE 3.5 mph - N/A   Mostly Cloudy
2:23 PM 89.1 °F 98.0 °F 73.9 °F 61% 29.97 in 10.0 mi Variable 3.5 mph - N/A Thunderstorm Mostly Cloudy
2:36 PM 82.9 °F 89.4 °F 73.9 °F 74% 30.00 in 8.0 mi WNW 21.9 mph 29.9 mph 0.03 in Rain , Thunderstorm Heavy Thunderstorms and Rain
2:45 PM 78.1 °F - 73.0 °F 84% 29.99 in 1.8 mi WNW 23.0 mph 33.4 mph 0.47 in Rain , Thunderstorm Heavy Thunderstorms and Rain
2:53 PM 75.9 °F - 72.0 °F 87% 29.99 in 1.8 mi West 19.6 mph 32.2 mph 0.68 in Rain , Thunderstorm Heavy Thunderstorms and Rain
3:01 PM 75.9 °F - 72.0 °F 87% 29.99 in 3.0 mi WSW 11.5 mph - 0.28 in Rain , Thunderstorm Heavy Thunderstorms and Rain
3:27 PM 75.2 °F - 71.6 °F 89% 30.00 in 10.0 mi SSW 8.1 mph - N/A Rain , Thunderstorm Light Rain
3:34 PM 75.9 °F - 71.1 °F 85% 30.00 in 10.0 mi SSW 4.6 mph - 0.47 in Rain , Thunderstorm Light Thunderstorms and Rain
3:53 PM 75.9 °F - 73.0 °F 91% 29.99 in 10.0 mi South 3.5 mph - 0.47 in Rain , Thunderstorm Light Thunderstorms and Rain
4:08 PM 75.9 °F - 73.0 °F 91% 29.99 in 10.0 mi WSW 4.6 mph - 0.01 in Rain Light Rain
4:53 PM 77.0 °F - 73.9 °F 90% 29.98 in 10.0 mi West 9.2 mph - 0.06 in Rain Light Rain
5:53 PM 77.0 °F - 73.9 °F 90% 29.95 in 10.0 mi SSW 4.6 mph - 0.01 in   Partly Cloudy
6:53 PM 77.0 °F - 73.0 °F 88% 29.96 in 10.0 mi ENE 3.5 mph - N/A   Clear
7:53 PM 77.0 °F - 73.9 °F 90% 29.95 in 10.0 mi NW 5.8 mph - N/A   Clear
8:53 PM 75.9 °F - 73.9 °F 94% 29.96 in 10.0 mi SW 3.5 mph - N/A   Clear
9:53 PM 75.9 °F - 73.9 °F 94% 29.97 in 10.0 mi Calm Calm - N/A   Clear
10:53 PM 75.0 °F - 73.0 °F 94% 29.98 in 10.0 mi ENE 4.6 mph - N/A   Clear
11:10 PM 75.0 °F - 73.0 °F 94% 29.99 in 10.0 mi ENE 3.5 mph - N/A   Scattered Clouds
11:53 PM 73.9 °F - 73.0 °F 97% 29.99 in 10.0 mi Calm Calm - N/A   Mostly Cloudy